Year,Month,Day,Hour,Minute,Value (Times are PST for temperature in C)
2023,11,04,00,00,11.60
2023,11,04,00,01,11.60
2023,11,04,00,02,11.60
2023,11,04,00,03,11.60
2023,11,04,00,04,11.60
2023,11,04,00,05,11.60
2023,11,04,00,06,11.70
2023,11,04,00,07,11.70
2023,11,04,00,09,11.70
2023,11,04,00,10,11.70
2023,11,04,00,11,11.70
2023,11,04,00,12,11.70
2023,11,04,00,13,11.80
2023,11,04,00,14,11.80
2023,11,04,00,15,11.80
2023,11,04,00,16,11.80
2023,11,04,00,17,11.80
2023,11,04,00,18,11.80
2023,11,04,00,19,11.80
2023,11,04,00,20,11.70
2023,11,04,00,21,11.70
2023,11,04,00,22,11.70
2023,11,04,00,23,11.70
2023,11,04,00,24,11.70
2023,11,04,00,25,11.70
2023,11,04,00,26,11.70
2023,11,04,00,27,11.70
2023,11,04,00,28,11.70
2023,11,04,00,29,11.60
2023,11,04,00,30,11.60
2023,11,04,00,32,11.60
2023,11,04,00,33,11.70
2023,11,04,00,34,11.70
2023,11,04,00,35,11.70
2023,11,04,00,36,11.70
2023,11,04,00,37,11.70
2023,11,04,00,38,11.70
2023,11,04,00,39,11.70
2023,11,04,00,40,11.70
2023,11,04,00,41,11.70
2023,11,04,00,42,11.70
2023,11,04,00,43,11.70
2023,11,04,00,44,11.70
2023,11,04,00,45,11.70
2023,11,04,00,46,11.70
2023,11,04,00,47,11.60
2023,11,04,00,48,11.60
2023,11,04,00,49,11.60
2023,11,04,00,50,11.60
2023,11,04,00,51,11.60
2023,11,04,00,52,11.60
2023,11,04,00,53,11.60
2023,11,04,00,54,11.60
2023,11,04,00,55,11.60
2023,11,04,00,56,11.60
2023,11,04,00,57,11.60
2023,11,04,00,58,11.60
2023,11,04,00,59,11.60
2023,11,04,01,00,11.60
2023,11,04,01,01,11.60
2023,11,04,01,02,11.60
2023,11,04,01,03,11.60
2023,11,04,01,04,11.60
2023,11,04,01,05,11.60
2023,11,04,01,06,11.60
2023,11,04,01,07,11.60
2023,11,04,01,08,11.60
2023,11,04,01,09,11.60
2023,11,04,01,10,11.60
2023,11,04,01,11,11.60
2023,11,04,01,12,11.60
2023,11,04,01,13,11.60
2023,11,04,01,14,11.60
2023,11,04,01,15,11.60
2023,11,04,01,16,11.60
2023,11,04,01,17,11.60
2023,11,04,01,18,11.60
2023,11,04,01,19,11.60
2023,11,04,01,20,11.60
2023,11,04,01,21,11.60
2023,11,04,01,22,11.60
2023,11,04,01,23,11.60
2023,11,04,01,24,11.60
2023,11,04,01,25,11.60
2023,11,04,01,26,11.60
2023,11,04,01,27,11.60
2023,11,04,01,28,11.60
2023,11,04,01,29,11.60
2023,11,04,01,30,11.60
2023,11,04,01,31,11.60
2023,11,04,01,32,11.60
2023,11,04,01,33,11.60
2023,11,04,01,34,11.60
2023,11,04,01,35,11.60
2023,11,04,01,36,11.60
2023,11,04,01,37,11.60
2023,11,04,01,38,11.60
2023,11,04,01,39,11.60
2023,11,04,01,40,11.60
2023,11,04,01,41,11.60
2023,11,04,01,42,11.60
2023,11,04,01,43,11.60
2023,11,04,01,44,11.60
2023,11,04,01,45,11.60
2023,11,04,01,46,11.60
2023,11,04,01,47,11.60
2023,11,04,01,48,11.60
2023,11,04,01,49,11.60
2023,11,04,01,50,11.60
2023,11,04,01,51,11.60
2023,11,04,01,52,11.60
2023,11,04,01,53,11.60
2023,11,04,01,54,11.60
2023,11,04,01,55,11.60
2023,11,04,01,56,11.60
2023,11,04,01,57,11.60
2023,11,04,01,58,11.70
2023,11,04,01,59,11.70
2023,11,04,02,00,11.70
2023,11,04,02,01,11.70
2023,11,04,02,02,11.70
2023,11,04,02,03,11.70
2023,11,04,02,04,11.70
2023,11,04,02,05,11.70
2023,11,04,02,06,11.70
2023,11,04,02,07,11.80
2023,11,04,02,08,11.80
2023,11,04,02,09,11.80
2023,11,04,02,10,11.80
2023,11,04,02,11,11.80
2023,11,04,02,12,11.80
2023,11,04,02,13,11.80
2023,11,04,02,14,11.80
2023,11,04,02,15,11.80
2023,11,04,02,16,11.80
2023,11,04,02,17,11.80
2023,11,04,02,18,11.80
2023,11,04,02,19,11.80
2023,11,04,02,20,11.80
2023,11,04,02,21,11.80
2023,11,04,02,22,11.80
2023,11,04,02,23,11.80
2023,11,04,02,24,11.80
2023,11,04,02,25,11.80
2023,11,04,02,26,11.80
2023,11,04,02,27,11.80
2023,11,04,02,28,11.80
2023,11,04,02,29,11.80
2023,11,04,02,30,11.80
2023,11,04,02,31,11.80
2023,11,04,02,32,11.80
2023,11,04,02,33,11.80
2023,11,04,02,34,11.80
2023,11,04,02,35,11.80
2023,11,04,02,36,11.80
2023,11,04,02,37,11.80
2023,11,04,02,38,11.80
2023,11,04,02,39,11.80
2023,11,04,02,40,11.80
2023,11,04,02,41,11.80
2023,11,04,02,42,11.80
2023,11,04,02,43,11.80
2023,11,04,02,44,11.80
2023,11,04,02,45,11.80
2023,11,04,02,46,11.80
2023,11,04,02,47,11.80
2023,11,04,02,48,11.80
2023,11,04,02,49,11.80
2023,11,04,02,50,11.80
2023,11,04,02,51,11.80
2023,11,04,02,52,11.80
2023,11,04,02,53,11.80
2023,11,04,02,54,11.80
2023,11,04,02,55,11.80
2023,11,04,02,56,11.80
2023,11,04,02,57,11.80
2023,11,04,02,58,11.80
2023,11,04,02,59,11.80
2023,11,04,03,00,11.90
2023,11,04,03,01,11.90
2023,11,04,03,03,11.90
2023,11,04,03,04,11.90
2023,11,04,03,06,11.90
2023,11,04,03,07,11.90
2023,11,04,03,08,11.90
2023,11,04,03,09,11.90
2023,11,04,03,11,11.90
2023,11,04,03,12,11.90
2023,11,04,03,13,12.00
2023,11,04,03,14,12.00
2023,11,04,03,15,12.00
2023,11,04,03,16,12.00
2023,11,04,03,17,12.00
2023,11,04,03,18,12.00
2023,11,04,03,19,12.00
2023,11,04,03,20,11.90
2023,11,04,03,21,11.90
2023,11,04,03,22,11.90
2023,11,04,03,23,11.90
2023,11,04,03,24,11.90
2023,11,04,03,25,11.90
2023,11,04,03,26,11.90
2023,11,04,03,27,11.90
2023,11,04,03,28,11.90
2023,11,04,03,29,11.90
2023,11,04,03,30,11.90
2023,11,04,03,31,11.90
2023,11,04,03,32,11.90
2023,11,04,03,33,11.80
2023,11,04,03,34,11.80
2023,11,04,03,35,11.80
2023,11,04,03,36,11.80
2023,11,04,03,37,11.80
2023,11,04,03,38,11.80
2023,11,04,03,39,11.80
2023,11,04,03,40,11.80
2023,11,04,03,41,11.80
2023,11,04,03,42,11.80
2023,11,04,03,43,11.80
2023,11,04,03,44,11.80
2023,11,04,03,45,11.80
2023,11,04,03,46,11.80
2023,11,04,03,47,11.80
2023,11,04,03,48,11.80
2023,11,04,03,49,11.80
2023,11,04,03,50,11.80
2023,11,04,03,51,11.80
2023,11,04,03,52,11.80
2023,11,04,03,53,11.80
2023,11,04,03,54,11.80
2023,11,04,03,55,11.80
2023,11,04,03,56,11.80
2023,11,04,03,57,11.80
2023,11,04,03,58,11.80
2023,11,04,03,59,11.80
2023,11,04,04,00,11.80
2023,11,04,04,01,11.80
2023,11,04,04,02,11.80
2023,11,04,04,03,11.80
2023,11,04,04,04,11.80
2023,11,04,04,05,11.80
2023,11,04,04,06,11.80
2023,11,04,04,07,11.80
2023,11,04,04,08,11.80
2023,11,04,04,09,11.80
2023,11,04,04,10,11.80
2023,11,04,04,11,11.80
2023,11,04,04,12,11.80
2023,11,04,04,13,11.80
2023,11,04,04,14,11.80
2023,11,04,04,15,11.80
2023,11,04,04,16,11.80
2023,11,04,04,17,11.80
2023,11,04,04,18,11.80
2023,11,04,04,19,11.80
2023,11,04,04,20,11.90
2023,11,04,04,21,11.90
2023,11,04,04,22,11.90
2023,11,04,04,23,11.90
2023,11,04,04,24,11.90
2023,11,04,04,25,11.90
2023,11,04,04,26,11.90
2023,11,04,04,27,12.00
2023,11,04,04,28,12.00
2023,11,04,04,29,12.10
2023,11,04,04,30,12.10
2023,11,04,04,31,12.10
2023,11,04,04,32,12.00
2023,11,04,04,33,12.00
2023,11,04,04,34,12.00
2023,11,04,04,35,12.00
2023,11,04,04,36,12.00
2023,11,04,04,37,12.00
2023,11,04,04,38,12.00
2023,11,04,04,39,12.00
2023,11,04,04,40,12.00
2023,11,04,04,41,12.00
2023,11,04,04,42,11.90
2023,11,04,04,43,11.90
2023,11,04,04,44,11.90
2023,11,04,04,45,11.90
2023,11,04,04,46,11.80
2023,11,04,04,47,11.80
2023,11,04,04,48,11.80
2023,11,04,04,49,11.80
2023,11,04,04,50,11.80
2023,11,04,04,51,11.80
2023,11,04,04,52,11.80
2023,11,04,04,53,11.80
2023,11,04,04,54,11.80
2023,11,04,04,55,11.90
2023,11,04,04,56,12.00
2023,11,04,04,57,12.00
2023,11,04,04,58,12.00
2023,11,04,04,59,12.00
2023,11,04,05,00,12.00
2023,11,04,05,01,12.00
2023,11,04,05,02,12.10
2023,11,04,05,03,12.30
2023,11,04,05,04,12.30
2023,11,04,05,05,12.30
2023,11,04,05,06,12.40
2023,11,04,05,07,12.40
2023,11,04,05,08,12.50
2023,11,04,05,09,12.50
2023,11,04,05,10,12.50
2023,11,04,05,11,12.50
2023,11,04,05,12,12.50
2023,11,04,05,13,12.50
2023,11,04,05,14,12.50
2023,11,04,05,15,12.50
2023,11,04,05,16,12.50
2023,11,04,05,17,12.50
2023,11,04,05,18,12.60
2023,11,04,05,19,12.60
2023,11,04,05,20,12.60
2023,11,04,05,21,12.60
2023,11,04,05,22,12.60
2023,11,04,05,23,12.60
2023,11,04,05,24,12.60
2023,11,04,05,25,12.60
2023,11,04,05,26,12.60
2023,11,04,05,27,12.60
2023,11,04,05,28,12.60
2023,11,04,05,29,12.60
2023,11,04,05,30,12.60
2023,11,04,05,31,12.60
2023,11,04,05,32,12.60
2023,11,04,05,33,12.70
2023,11,04,05,34,12.70
2023,11,04,05,35,12.60
2023,11,04,05,36,12.60
2023,11,04,05,37,12.60
2023,11,04,05,38,12.60
2023,11,04,05,39,12.60
2023,11,04,05,40,12.60
2023,11,04,05,41,12.60
2023,11,04,05,42,12.60
2023,11,04,05,43,12.60
2023,11,04,05,44,12.60
2023,11,04,05,45,12.70
2023,11,04,05,46,12.70
2023,11,04,05,47,12.70
2023,11,04,05,48,12.60
2023,11,04,05,49,12.60
2023,11,04,05,50,12.60
2023,11,04,05,51,12.60
2023,11,04,05,52,12.70
2023,11,04,05,53,12.70
2023,11,04,05,54,12.70
2023,11,04,05,55,12.80
2023,11,04,05,56,12.80
2023,11,04,05,57,12.80
2023,11,04,05,58,12.80
2023,11,04,05,59,12.80
2023,11,04,06,00,12.80
2023,11,04,06,01,12.80
2023,11,04,06,02,12.70
2023,11,04,06,03,12.70
2023,11,04,06,04,12.70
2023,11,04,06,05,12.70
2023,11,04,06,06,12.70
2023,11,04,06,07,12.70
2023,11,04,06,08,12.70
2023,11,04,06,09,12.70
2023,11,04,06,10,12.70
2023,11,04,06,11,12.70
2023,11,04,06,12,12.70
2023,11,04,06,13,12.70
2023,11,04,06,14,12.70
2023,11,04,06,15,12.70
2023,11,04,06,16,12.70
2023,11,04,06,17,12.70
2023,11,04,06,18,12.70
2023,11,04,06,19,12.70
2023,11,04,06,20,12.70
2023,11,04,06,21,12.60
2023,11,04,06,22,12.60
2023,11,04,06,23,12.60
2023,11,04,06,24,12.60
2023,11,04,06,25,12.60
2023,11,04,06,26,12.60
2023,11,04,06,27,12.60
2023,11,04,06,28,12.60
2023,11,04,06,29,12.60
2023,11,04,06,30,12.50
2023,11,04,06,33,12.50
2023,11,04,06,34,12.50
2023,11,04,06,36,12.50
2023,11,04,06,37,12.50
2023,11,04,06,38,12.50
2023,11,04,06,39,12.50
2023,11,04,06,40,12.50
2023,11,04,06,41,12.40
2023,11,04,06,42,12.40
2023,11,04,06,43,12.40
2023,11,04,06,44,12.40
2023,11,04,06,45,12.40
2023,11,04,06,46,12.40
2023,11,04,06,47,12.40
2023,11,04,06,48,12.40
2023,11,04,06,49,12.40
2023,11,04,06,50,12.40
2023,11,04,06,51,12.40
2023,11,04,06,52,12.40
2023,11,04,06,53,12.40
2023,11,04,06,54,12.40
2023,11,04,06,55,12.40
2023,11,04,06,56,12.40
2023,11,04,06,57,12.40
2023,11,04,06,58,12.50
2023,11,04,06,59,12.50
2023,11,04,07,00,12.50
2023,11,04,07,01,12.50
2023,11,04,07,02,12.50
2023,11,04,07,03,12.60
2023,11,04,07,04,12.60
2023,11,04,07,05,12.60
2023,11,04,07,06,12.60
2023,11,04,07,07,12.60
2023,11,04,07,08,12.60
2023,11,04,07,09,12.60
2023,11,04,07,10,12.60
2023,11,04,07,11,12.60
2023,11,04,07,12,12.60
2023,11,04,07,13,12.60
2023,11,04,07,14,12.60
2023,11,04,07,15,12.60
2023,11,04,07,16,12.60
2023,11,04,07,17,12.60
2023,11,04,07,18,12.60
2023,11,04,07,19,12.60
2023,11,04,07,20,12.60
2023,11,04,07,21,12.60
2023,11,04,07,22,12.60
2023,11,04,07,23,12.60
2023,11,04,07,24,12.50
2023,11,04,07,25,12.50
2023,11,04,07,26,12.50
2023,11,04,07,27,12.50
2023,11,04,07,28,12.40
2023,11,04,07,29,12.40
2023,11,04,07,30,12.30
2023,11,04,07,31,12.30
2023,11,04,07,32,12.30
2023,11,04,07,33,12.20
2023,11,04,07,34,12.20
2023,11,04,07,35,12.20
2023,11,04,07,36,12.10
2023,11,04,07,37,12.10
2023,11,04,07,38,12.00
2023,11,04,07,39,11.90
2023,11,04,07,40,11.90
2023,11,04,07,41,11.80
2023,11,04,07,42,11.80
2023,11,04,07,43,11.80
2023,11,04,07,44,11.80
2023,11,04,07,45,11.80
2023,11,04,07,46,11.80
2023,11,04,07,47,11.80
2023,11,04,07,48,11.80
2023,11,04,07,49,11.80
2023,11,04,07,50,11.70
2023,11,04,07,51,11.70
2023,11,04,07,52,11.70
2023,11,04,07,53,11.70
2023,11,04,07,54,11.70
2023,11,04,07,55,11.70
2023,11,04,07,56,11.70
2023,11,04,07,57,11.70
2023,11,04,07,58,11.70
2023,11,04,07,59,11.70
2023,11,04,08,00,11.70
2023,11,04,08,01,11.70
2023,11,04,08,02,11.70
2023,11,04,08,03,11.70
2023,11,04,08,04,11.70
2023,11,04,08,05,11.70
2023,11,04,08,06,11.70
2023,11,04,08,07,11.70
2023,11,04,08,08,11.70
2023,11,04,08,09,11.80
2023,11,04,08,10,11.80
2023,11,04,08,11,11.80
2023,11,04,08,12,11.80
2023,11,04,08,13,11.80
2023,11,04,08,14,11.80
2023,11,04,08,15,11.80
2023,11,04,08,16,11.90
2023,11,04,08,17,11.90
2023,11,04,08,18,11.90
2023,11,04,08,19,12.00
2023,11,04,08,20,12.00
2023,11,04,08,21,12.10
2023,11,04,08,22,12.10
2023,11,04,08,23,12.10
2023,11,04,08,24,12.10
2023,11,04,08,25,12.10
2023,11,04,08,26,12.20
2023,11,04,08,27,12.20
2023,11,04,08,28,12.20
2023,11,04,08,29,12.20
2023,11,04,08,30,12.20
2023,11,04,08,31,12.20
2023,11,04,08,32,12.20
2023,11,04,08,33,12.30
2023,11,04,08,34,12.30
2023,11,04,08,35,12.30
2023,11,04,08,36,12.30
2023,11,04,08,37,12.30
2023,11,04,08,38,12.30
2023,11,04,08,39,12.30
2023,11,04,08,40,12.30
2023,11,04,08,41,12.30
2023,11,04,08,42,12.30
2023,11,04,08,43,12.30
2023,11,04,08,44,12.30
2023,11,04,08,45,12.30
2023,11,04,08,46,12.30
2023,11,04,08,47,12.30
2023,11,04,08,48,12.20
2023,11,04,08,49,12.20
2023,11,04,08,50,12.20
2023,11,04,08,51,12.20
2023,11,04,08,52,12.20
2023,11,04,08,53,12.20
2023,11,04,08,54,12.20
2023,11,04,08,55,12.20
2023,11,04,08,56,12.20
2023,11,04,08,57,12.20
2023,11,04,08,58,12.20
2023,11,04,08,59,12.20
2023,11,04,09,00,12.20
2023,11,04,09,01,12.20
2023,11,04,09,02,12.30
2023,11,04,09,03,12.30
2023,11,04,09,04,12.30
2023,11,04,09,05,12.30
2023,11,04,09,06,12.30
2023,11,04,09,07,12.30
2023,11,04,09,08,12.30
2023,11,04,09,09,12.30
2023,11,04,09,10,12.30
2023,11,04,09,11,12.30
2023,11,04,09,12,12.30
2023,11,04,09,13,12.30
2023,11,04,09,14,12.30
2023,11,04,09,15,12.30
2023,11,04,09,16,12.30
2023,11,04,09,17,12.30
2023,11,04,09,18,12.40
2023,11,04,09,19,12.40
2023,11,04,09,20,12.40
2023,11,04,09,21,12.40
2023,11,04,09,22,12.40
2023,11,04,09,23,12.40
2023,11,04,09,24,12.40
2023,11,04,09,25,12.40
2023,11,04,09,26,12.40
2023,11,04,09,27,12.40
2023,11,04,09,28,12.40
2023,11,04,09,29,12.50
2023,11,04,09,30,12.50
2023,11,04,09,31,12.50
2023,11,04,09,32,12.50
2023,11,04,09,33,12.50
2023,11,04,09,34,12.50
2023,11,04,09,35,12.50
2023,11,04,09,36,12.50
2023,11,04,09,37,12.50
2023,11,04,09,38,12.50
2023,11,04,09,39,12.50
2023,11,04,09,40,12.50
2023,11,04,09,41,12.50
2023,11,04,09,42,12.50
2023,11,04,09,43,12.50
2023,11,04,09,44,12.50
2023,11,04,09,45,12.50
2023,11,04,09,46,12.50
2023,11,04,09,47,12.50
2023,11,04,09,48,12.50
2023,11,04,09,49,12.50
2023,11,04,09,50,12.50
2023,11,04,09,51,12.50
2023,11,04,09,52,12.50
2023,11,04,09,53,12.50
2023,11,04,09,54,12.50
2023,11,04,09,55,12.50
2023,11,04,09,56,12.50
2023,11,04,09,57,12.50
2023,11,04,09,58,12.50
2023,11,04,09,59,12.40
2023,11,04,10,00,12.40
2023,11,04,10,01,12.30
2023,11,04,10,02,12.30
2023,11,04,10,03,12.30
2023,11,04,10,04,12.20
2023,11,04,10,05,12.20
2023,11,04,10,06,12.10
2023,11,04,10,07,12.10
2023,11,04,10,08,12.10
2023,11,04,10,09,12.00
2023,11,04,10,10,12.00
2023,11,04,10,11,12.00
2023,11,04,10,12,11.90
2023,11,04,10,13,11.90
2023,11,04,10,14,11.90
2023,11,04,10,15,11.90
2023,11,04,10,16,12.00
2023,11,04,10,17,12.00
2023,11,04,10,18,12.00
2023,11,04,10,19,12.00
2023,11,04,10,20,12.10
2023,11,04,10,21,12.10
2023,11,04,10,22,12.10
2023,11,04,10,23,12.10
2023,11,04,10,24,12.10
2023,11,04,10,25,12.20
2023,11,04,10,26,12.20
2023,11,04,10,27,12.20
2023,11,04,10,28,12.20
2023,11,04,10,29,12.20
2023,11,04,10,30,12.20
2023,11,04,10,31,12.20
2023,11,04,10,33,12.20
2023,11,04,10,34,12.20
2023,11,04,11,29,12.60
2023,11,04,11,30,12.60
2023,11,04,11,31,12.70
2023,11,04,11,32,12.70
2023,11,04,11,33,12.70
2023,11,04,11,34,12.80
2023,11,04,11,35,12.80
2023,11,04,11,36,12.80
2023,11,04,11,37,12.80
2023,11,04,11,38,12.80
2023,11,04,11,39,12.90
2023,11,04,11,40,13.00
2023,11,04,11,41,13.10
2023,11,04,11,42,13.20
2023,11,04,11,43,13.30
2023,11,04,11,44,13.30
2023,11,04,11,45,13.40
2023,11,04,11,46,13.60
2023,11,04,11,47,13.70
2023,11,04,11,48,13.80
2023,11,04,11,49,13.90
2023,11,04,11,50,14.00
2023,11,04,11,51,14.00
2023,11,04,11,52,14.10
2023,11,04,11,53,14.20
2023,11,04,11,54,14.20
2023,11,04,11,55,14.20
2023,11,04,11,56,14.20
2023,11,04,11,57,14.20
2023,11,04,11,58,14.20
2023,11,04,11,59,14.30
2023,11,04,12,00,14.30
2023,11,04,12,02,14.30
2023,11,04,12,04,14.30
2023,11,04,12,06,14.40
2023,11,04,12,07,14.40
2023,11,04,12,08,14.40
2023,11,04,12,09,14.40
2023,11,04,12,11,14.50
2023,11,04,12,12,14.60
2023,11,04,12,13,14.60
2023,11,04,12,14,14.60
2023,11,04,12,16,14.60
2023,11,04,12,17,14.70
2023,11,04,12,18,14.70
2023,11,04,12,19,14.70
2023,11,04,12,20,14.80
2023,11,04,12,21,14.80
2023,11,04,12,22,14.80
2023,11,04,12,23,14.80
2023,11,04,12,24,14.80
2023,11,04,12,25,14.80
2023,11,04,12,26,14.80
2023,11,04,12,27,14.80
2023,11,04,12,28,14.80
2023,11,04,12,29,14.80
2023,11,04,12,30,14.80
2023,11,04,12,32,14.90
2023,11,04,12,33,14.90
2023,11,04,12,34,14.90
2023,11,04,12,35,14.90
2023,11,04,12,36,14.90
2023,11,04,12,37,14.90
2023,11,04,12,38,14.80
2023,11,04,12,39,14.80
2023,11,04,12,40,14.80
2023,11,04,12,41,14.80
2023,11,04,12,42,14.80
2023,11,04,12,43,14.70
2023,11,04,12,44,14.60
2023,11,04,12,45,14.60
2023,11,04,12,46,14.50
2023,11,04,12,47,14.50
2023,11,04,12,48,14.40
2023,11,04,12,49,14.40
2023,11,04,12,50,14.40
2023,11,04,12,51,14.50
2023,11,04,12,52,14.60
2023,11,04,12,53,14.70
2023,11,04,12,54,14.80
2023,11,04,12,55,14.80
2023,11,04,12,56,14.90
2023,11,04,12,57,14.90
2023,11,04,12,58,15.00
2023,11,04,12,59,15.00
2023,11,04,13,00,15.10
2023,11,04,13,01,15.20
2023,11,04,13,02,15.20
2023,11,04,13,03,15.30
2023,11,04,13,04,15.30
2023,11,04,13,05,15.40
2023,11,04,13,06,15.40
2023,11,04,13,07,15.50
2023,11,04,13,08,15.50
2023,11,04,13,09,15.60
2023,11,04,13,10,15.60
2023,11,04,13,11,15.60
2023,11,04,13,12,15.70
2023,11,04,13,13,15.80
2023,11,04,13,14,15.80
2023,11,04,13,15,15.80
2023,11,04,13,16,15.80
2023,11,04,13,17,15.80
2023,11,04,13,18,15.80
2023,11,04,13,19,15.80
2023,11,04,13,20,15.80
2023,11,04,13,21,15.80
2023,11,04,13,22,15.80
2023,11,04,13,23,15.80
2023,11,04,13,24,15.80
2023,11,04,13,25,15.80
2023,11,04,13,26,15.80
2023,11,04,13,27,15.90
2023,11,04,13,28,15.90
2023,11,04,13,29,16.10
2023,11,04,13,30,16.10
2023,11,04,13,31,16.10
2023,11,04,13,32,16.10
2023,11,04,13,33,16.10
2023,11,04,13,34,16.20
2023,11,04,13,35,16.20
2023,11,04,13,36,16.20
2023,11,04,13,37,16.30
2023,11,04,13,38,16.30
2023,11,04,13,39,16.30
2023,11,04,13,40,16.30
2023,11,04,13,41,16.30
2023,11,04,13,42,16.40
2023,11,04,13,43,16.30
2023,11,04,13,44,16.30
2023,11,04,13,45,16.30
2023,11,04,13,46,16.30
2023,11,04,13,47,16.30
2023,11,04,13,48,16.40
2023,11,04,13,49,16.40
2023,11,04,13,50,16.40
2023,11,04,13,51,16.60
2023,11,04,13,52,16.60
2023,11,04,13,53,16.60
2023,11,04,13,54,16.60
2023,11,04,13,55,16.70
2023,11,04,13,56,16.70
2023,11,04,13,57,16.70
2023,11,04,13,58,16.70
2023,11,04,13,59,16.70
2023,11,04,14,00,16.80
2023,11,04,14,01,16.80
2023,11,04,14,02,16.80
2023,11,04,14,03,16.80
2023,11,04,14,04,16.90
2023,11,04,14,05,16.90
2023,11,04,14,06,16.90
2023,11,04,14,07,17.00
2023,11,04,14,08,17.00
2023,11,04,14,09,17.00
2023,11,04,14,10,17.00
2023,11,04,14,11,17.10
2023,11,04,14,12,17.10
2023,11,04,14,13,17.20
2023,11,04,14,14,17.20
2023,11,04,14,15,17.20
2023,11,04,14,16,17.20
2023,11,04,14,17,17.30
2023,11,04,14,18,17.30
2023,11,04,14,19,17.30
2023,11,04,14,20,17.30
2023,11,04,14,21,17.30
2023,11,04,14,22,17.30
2023,11,04,14,23,17.30
2023,11,04,14,24,17.30
2023,11,04,14,25,17.30
2023,11,04,14,26,17.30
2023,11,04,14,27,17.30
2023,11,04,14,28,17.30
2023,11,04,14,29,17.20
2023,11,04,14,30,17.20
2023,11,04,14,31,17.20
2023,11,04,14,32,17.20
2023,11,04,14,33,17.20
2023,11,04,14,34,17.20
2023,11,04,14,35,17.20
2023,11,04,14,36,17.20
2023,11,04,14,37,17.20
2023,11,04,14,38,17.20
2023,11,04,14,39,17.10
2023,11,04,14,40,17.00
2023,11,04,14,41,17.00
2023,11,04,14,42,16.90
2023,11,04,14,43,16.90
2023,11,04,14,44,16.80
2023,11,04,14,45,16.80
2023,11,04,14,46,16.70
2023,11,04,14,47,16.70
2023,11,04,14,48,16.70
2023,11,04,14,49,16.60
2023,11,04,14,50,16.40
2023,11,04,14,51,16.40
2023,11,04,14,52,16.40
2023,11,04,14,53,16.40
2023,11,04,14,54,16.40
2023,11,04,14,55,16.40
2023,11,04,14,56,16.40
2023,11,04,14,57,16.40
2023,11,04,14,58,16.40
2023,11,04,14,59,16.40
2023,11,04,15,00,16.40
2023,11,04,15,01,16.30
2023,11,04,15,02,16.30
2023,11,04,15,03,16.30
2023,11,04,15,04,16.30
2023,11,04,15,05,16.40
2023,11,04,15,06,16.30
2023,11,04,15,07,16.30
2023,11,04,15,08,16.40
2023,11,04,15,09,16.40
2023,11,04,15,10,16.30
2023,11,04,15,11,16.30
2023,11,04,15,12,16.30
2023,11,04,15,13,16.30
2023,11,04,15,14,16.30
2023,11,04,15,15,16.40
2023,11,04,15,16,16.40
2023,11,04,15,17,16.40
2023,11,04,15,18,16.40
2023,11,04,15,19,16.40
2023,11,04,15,20,16.40
2023,11,04,15,21,16.40
2023,11,04,15,22,16.40
2023,11,04,15,23,16.40
2023,11,04,15,24,16.40
2023,11,04,15,25,16.40
2023,11,04,15,26,16.40
2023,11,04,15,27,16.40
2023,11,04,15,28,16.40
2023,11,04,15,29,16.40
2023,11,04,15,30,16.40
2023,11,04,15,31,16.40
2023,11,04,15,32,16.40
2023,11,04,15,33,16.40
2023,11,04,15,34,16.40
2023,11,04,15,35,16.40
2023,11,04,15,36,16.40
2023,11,04,15,37,16.40
2023,11,04,15,38,16.40
2023,11,04,15,39,16.40
2023,11,04,15,40,16.40
2023,11,04,15,41,16.40
2023,11,04,15,42,16.40
2023,11,04,15,43,16.40
2023,11,04,15,44,16.40
2023,11,04,15,45,16.40
2023,11,04,15,46,16.40
2023,11,04,15,47,16.40
2023,11,04,15,48,16.40
2023,11,04,15,49,16.40
2023,11,04,15,50,16.40
2023,11,04,15,51,16.40
2023,11,04,15,52,16.40
2023,11,04,15,53,16.40
2023,11,04,15,54,16.40
2023,11,04,15,55,16.40
2023,11,04,15,56,16.40
2023,11,04,15,57,16.40
2023,11,04,15,58,16.40
2023,11,04,15,59,16.40
2023,11,04,16,00,16.40
2023,11,04,16,01,16.30
2023,11,04,16,02,16.30
2023,11,04,16,03,16.30
2023,11,04,16,04,16.20
2023,11,04,16,05,16.20
2023,11,04,16,06,16.20
2023,11,04,16,08,16.10
2023,11,04,16,09,16.10
2023,11,04,16,11,15.90
2023,11,04,16,12,15.90
2023,11,04,16,13,15.80
2023,11,04,16,14,15.80
2023,11,04,16,16,15.80
2023,11,04,16,17,15.80
2023,11,04,16,18,15.80
2023,11,04,16,19,15.80
2023,11,04,16,20,15.70
2023,11,04,16,21,15.60
2023,11,04,16,22,15.60
2023,11,04,16,23,15.60
2023,11,04,16,24,15.50
2023,11,04,16,25,15.50
2023,11,04,16,26,15.50
2023,11,04,16,27,15.40
2023,11,04,16,28,15.40
2023,11,04,16,29,15.30
2023,11,04,16,30,15.30
2023,11,04,16,31,15.20
2023,11,04,16,32,15.10
2023,11,04,16,33,15.10
2023,11,04,16,34,15.00
2023,11,04,16,36,14.90
2023,11,04,16,37,14.80
2023,11,04,16,38,14.80
2023,11,04,16,39,14.80
2023,11,04,16,40,14.80
2023,11,04,16,41,14.80
2023,11,04,16,42,14.80
2023,11,04,16,43,14.80
2023,11,04,16,44,14.80
2023,11,04,16,45,14.80
2023,11,04,16,46,14.80
2023,11,04,16,47,14.80
2023,11,04,16,48,14.80
2023,11,04,16,49,14.80
2023,11,04,16,50,14.70
2023,11,04,16,51,14.70
2023,11,04,16,52,14.70
2023,11,04,16,53,14.70
2023,11,04,16,54,14.70
2023,11,04,16,55,14.70
2023,11,04,16,56,14.70
2023,11,04,16,57,14.60
2023,11,04,16,58,14.60
2023,11,04,16,59,14.60
2023,11,04,17,00,14.60
2023,11,04,17,01,14.60
2023,11,04,17,02,14.60
2023,11,04,17,03,14.60
2023,11,04,17,04,14.50
2023,11,04,17,05,14.50
2023,11,04,17,06,14.50
2023,11,04,17,07,14.50
2023,11,04,17,08,14.50
2023,11,04,17,09,14.50
2023,11,04,17,10,14.50
2023,11,04,17,11,14.50
2023,11,04,17,12,14.50
2023,11,04,17,13,14.50
2023,11,04,17,14,14.50
2023,11,04,17,15,14.40
2023,11,04,17,16,14.40
2023,11,04,17,17,14.40
2023,11,04,17,18,14.40
2023,11,04,17,19,14.40
2023,11,04,17,20,14.40
2023,11,04,17,21,14.40
2023,11,04,17,22,14.40
2023,11,04,17,23,14.40
2023,11,04,17,24,14.40
2023,11,04,17,25,14.40
2023,11,04,17,26,14.40
2023,11,04,17,27,14.40
2023,11,04,17,28,14.40
2023,11,04,17,29,14.40
2023,11,04,17,30,14.40
2023,11,04,17,31,14.40
2023,11,04,17,32,14.40
2023,11,04,17,33,14.40
2023,11,04,17,34,14.40
2023,11,04,17,35,14.40
2023,11,04,17,36,14.40
2023,11,04,17,37,14.40
2023,11,04,17,38,14.40
2023,11,04,17,39,14.40
2023,11,04,17,40,14.40
2023,11,04,17,41,14.40
2023,11,04,17,42,14.40
2023,11,04,17,43,14.40
2023,11,04,17,44,14.40
2023,11,04,17,45,14.40
2023,11,04,17,46,14.40
2023,11,04,17,47,14.40
2023,11,04,17,48,14.40
2023,11,04,17,49,14.40
2023,11,04,17,50,14.40
2023,11,04,17,51,14.40
2023,11,04,17,52,14.40
2023,11,04,17,53,14.40
2023,11,04,17,54,14.40
2023,11,04,17,55,14.40
2023,11,04,17,56,14.40
2023,11,04,17,57,14.40
2023,11,04,17,58,14.40
2023,11,04,17,59,14.40
2023,11,04,18,00,14.40
2023,11,04,18,01,14.30
2023,11,04,18,02,14.40
2023,11,04,18,03,14.30
2023,11,04,18,04,14.30
2023,11,04,18,05,14.30
2023,11,04,18,06,14.30
2023,11,04,18,07,14.30
2023,11,04,18,08,14.30
2023,11,04,18,09,14.30
2023,11,04,18,10,14.30
2023,11,04,18,11,14.30
2023,11,04,18,12,14.30
2023,11,04,18,13,14.20
2023,11,04,18,14,14.20
2023,11,04,18,15,14.20
2023,11,04,18,16,14.20
2023,11,04,18,17,14.20
2023,11,04,18,18,14.20
2023,11,04,18,19,14.20
2023,11,04,18,20,14.20
2023,11,04,18,21,14.20
2023,11,04,18,22,14.10
2023,11,04,18,23,14.10
2023,11,04,18,24,14.10
2023,11,04,18,25,14.10
2023,11,04,18,26,14.10
2023,11,04,18,27,14.10
2023,11,04,18,28,14.00
2023,11,04,18,29,14.00
2023,11,04,18,30,14.00
2023,11,04,18,32,14.00
2023,11,04,18,33,14.00